Location: *
(51.1248°S, 108.4023°W)
Time: 01:34:15
(UTC+00:00)

N. Korean satellite - Pass Details

Date: 30 September 2021
Orbit: 450 x 495 km, 97.3° (Epoch: 24 October)

Event Time Altitude Azimuth Distance (km) Brightness Sun altitude
Rises 11:00:40 0° 31° (NNE) 2,590 10.3 -16.2°
Reaches altitude 10° 11:02:48 10° 38° (NE) 1,712 9.5 -15.9°
Maximum altitude 11:06:18 43° 109° (ESE) 721 8.0 -15.4°
Drops below altitude 10° 11:09:50 10° 181° (S) 1,718 9.6 -14.9°
Sets 11:11:58 0° 187° (S) 2,602 10.5 -14.6°
